User: anonymous   Login
Location: ASU Dark Sky Observatory
(36.2504°N, 81.4125°W)
Time: 17:36:55
(UTC-05:00)
Language:

ETS-7 - Orbit

View from above orbital plane
View from above orbital plane
View from above satellite
View from above satellite

Ground track
Ground track

The orbit data is extracted from the following two-line orbital elements,

1 25064U 97074B   15061.86293683  .00057741  00000-0  59704-3 0  9994
2 25064 034.9582 000.8926 0004519 315.5998 086.7338 15.63573742961446
Epoch (UTC): 02 March 2015 20:42:37
Eccentricity: 0.0004519
inclination: 34.9582°
perigee height: 374 km
apogee height: 380 km
right ascension of ascending node: 0.8926°
argument of perigee: 315.5998°
revolutions per day: 15.63573742
mean anomaly at epoch: 86.7338°
orbit number at epoch: 96144

The dashed part of the orbit path shows where the satellite is in the earth's shadow,  

DLR